Location: Gradaro
(45.0833°N, 10.8833°E)
Time: 21:48:43
(UTC+00:00)

SL-4 R/B - Pass Details

Date: 29 November 2020
Orbit: 428 x 664 km, 51.6° (Epoch: 21 January)

Event Time Altitude Azimuth Distance (km) Brightness Sun altitude
Exits shadow 04:15:48 29° 19° (NNE) 954 3.3 -23.5°
Drops below altitude 10° 04:18:21 10° 56° (ENE) 1,676 5.1 -23.1°
Sets 04:20:35 0° 67° (ENE) 2,518 6.3 -22.7°
